Find Starlink 38314

NORAD ID: 100388 Int'l Des: 2026-190 Owner: SPXS Country: US Constellation: starlink operational

現在のビュー

3D地球を読み込み中...

About Starlink 38314

Starlink 38314 (NORAD 100388) is a starlink constellation satellite launched Aug 19, 2026 by SPXS of US. with a mass of 575.00 kg.

次回通過

Passes for default location (London). Set your location on the main map for personalized predictions.

高度履歴

Loading altitude history...

軌道要素

1 A0388U 26190T 26248.20163640 .00137093 00000-0 90400-3 0 9990
2 A0388 97.2843 101.7474 0001548 76.1006 284.0431 15.75223704 3962
Epoch: Sep 5, 2026 • Age: 9 hours

現在のステータス

高度 363.6 km
遠地点 / 近地点 N/A
速度 7.69 km/s
衛星直下点 -49.63°S, 80.57°W
打ち上げ日 Aug 19, 2026
運用期間 17 days
タイプ internet

技術仕様

分類 Payload
質量 575.00 kg
乾燥質量 530.00 kg
総質量 575.00 kg
長さ 0.30 m
直径 4.10 m
スパン 29.00 m
形状 Box + pan
製造者 SPXS
バスタイプ Starlink V2MO
フェーズステータス In Orbit
所有者/国 SPXS/US

Most Searched